Big Delta, AK

10:48 AM AKDT on May 25, 2017 (GMT -0800)
Allen Army Air Field

Weather History for PABI - August, 2014

Change the Weather History Date:

Friday, August 15, 2014

  Actual Average Record
Temperature  
Mean Temperature 61 °F -  
Max Temperature 69 °F 62 °F 86 °F (2010)
Min Temperature 53 °F 45 °F 34 °F (2002)
Degree Days  
Heating Degree Days 4    
Growing Degree Days 11 (Base 50)    
Moisture  
Dew Point 42 °F    
Average Humidity 52    
Maximum Humidity 90    
Minimum Humidity 24    
Precipitation  
Precipitation 0.04 in - - ()
Sea Level Pressure  
Sea Level Pressure 29.58 in    
Wind  
Wind Speed 12 mph (South)    
Max Wind Speed 32 mph    
Max Gust Speed 44 mph    
Visibility 10 miles    
Events Rain    
Averages and records for this station are not official NWS values.
T = Trace of Precipitation, MM = Missing Value Source: NWS Daily Summary

Daily Weather History Graph

Daily Weather History Graph

Search for Another Location

Airport or City:

Trip Planner

Search our weather history database for the weather conditions in past years. The results will help you decide how hot, cold, wet, or windy it might be!

Date:

Astronomy

Aug. 15, 2014 Rise Set
Actual Time 5:35 AM AKDT 9:56 PM AKDT
Civil Twilight 4:31 AM AKDT 11:00 PM AKDT
Nautical Twilight 1:48 AM AKDT 1:11 AM AKDT
Astronomical Twilight Sun does not set Sun does not set
Moon 10:39 PM AKDT (8/15) 1:49 PM AKDT (8/15)
Length of Visible Light 18h 29m
Length of Day
16h 21m
Waning Gibbous, 68% of the Moon is Illuminated
Aug 15
Waning Gibbous
Aug 17
Last Quarter
Aug 25
New
Sep 2
First Quarter
Sep 8
Full

Hourly Weather History & Observations

Time (AKDT) Temp. Dew Point Humidity Pressure Visibility Wind Dir Wind Speed Gust Speed Precip Events Conditions
12:53 AM 62.1 °F 41.0 °F 46% 29.60 in 10.0 mi SE 8.1 mph - N/A   Partly Cloudy
1:53 AM 60.1 °F 44.1 °F 55% 29.60 in 10.0 mi SE 8.1 mph - N/A   Scattered Clouds
2:53 AM 57.9 °F 45.0 °F 62% 29.59 in 10.0 mi East 3.5 mph - N/A   Mostly Cloudy
3:53 AM 57.0 °F 45.0 °F 64% 29.57 in 10.0 mi ESE 8.1 mph - N/A   Scattered Clouds
4:53 AM 59.0 °F 44.1 °F 58% 29.55 in 10.0 mi SE 10.4 mph - N/A   Scattered Clouds
5:53 AM 57.9 °F 46.9 °F 67% 29.55 in 10.0 mi ESE 5.8 mph - 0.00 in Rain Light Rain
6:53 AM 55.0 °F 48.9 °F 80% 29.55 in 10.0 mi South 3.5 mph - 0.01 in Rain Light Rain
7:53 AM 53.1 °F 50.0 °F 89% 29.56 in 10.0 mi Calm Calm - 0.03 in Rain Light Rain
8:53 AM 54.0 °F 51.1 °F 90% 29.55 in 10.0 mi ESE 5.8 mph - 0.00 in   Mostly Cloudy
9:53 AM 57.0 °F 52.0 °F 83% 29.54 in 10.0 mi ESE 17.3 mph 20.7 mph N/A   Mostly Cloudy
10:53 AM 63.0 °F 41.0 °F 45% 29.52 in 10.0 mi South 24.2 mph 36.8 mph N/A   Mostly Cloudy
11:53 AM 64.9 °F 39.9 °F 40% 29.52 in 10.0 mi South 29.9 mph 38.0 mph N/A   Scattered Clouds
12:53 PM 66.0 °F 37.0 °F 34% 29.54 in 10.0 mi South 24.2 mph 43.7 mph N/A   Scattered Clouds
1:53 PM 66.0 °F 39.0 °F 37% 29.53 in 10.0 mi South 32.2 mph 43.7 mph N/A   Scattered Clouds
2:53 PM 66.0 °F 39.9 °F 38% 29.55 in 10.0 mi SSW 24.2 mph 32.2 mph N/A   Mostly Cloudy
3:53 PM 64.9 °F 37.0 °F 36% 29.58 in 10.0 mi SSW 27.6 mph 36.8 mph N/A   Mostly Cloudy
4:53 PM 64.9 °F 39.0 °F 39% 29.59 in 10.0 mi SSW 17.3 mph 33.4 mph N/A   Mostly Cloudy
5:53 PM 66.9 °F 37.0 °F 33% 29.60 in 10.0 mi WSW 11.5 mph - N/A   Mostly Cloudy
6:53 PM 66.0 °F 39.9 °F 38% 29.63 in 10.0 mi Variable 4.6 mph - N/A   Mostly Cloudy
7:53 PM 64.0 °F 39.0 °F 40% 29.63 in 10.0 mi South 12.7 mph 19.6 mph N/A   Mostly Cloudy
8:53 PM 62.1 °F 37.9 °F 41% 29.64 in 10.0 mi SSW 9.2 mph - N/A   Mostly Cloudy
9:53 PM 60.1 °F 37.9 °F 44% 29.65 in 10.0 mi SW 9.2 mph - N/A   Clear
10:53 PM 57.9 °F 39.0 °F 49% 29.66 in 10.0 mi SW 9.2 mph - N/A   Partly Cloudy
11:53 PM 57.9 °F 37.9 °F 47% 29.68 in 10.0 mi SSW 20.7 mph 28.8 mph N/A   Partly Cloudy